Location: Unspecified
(0.0000°N, 0.0000°E)
Time: 18:59:31
(UTC+00:00)

N. Korean satellite - Pass Details

Date: 17 December 2017
Orbit: 461 x 513 km, 97.2° (Epoch: 10 December)

Event Time Altitude Azimuth Distance (km) Brightness Sun altitude
Rises 18:23:33 0° 171° (S) 2,556 10.4 -6.2°
Reaches altitude 10° 18:25:36 10° 171° (S) 1,682 9.5 -6.7°
Maximum altitude 18:29:13 83° 259° (WSW) 504 6.7 -7.5°
Drops below altitude 10° 18:32:53 10° 347° (NNW) 1,702 9.2 -8.4°
Sets 18:34:58 0° 348° (NNW) 2,589 10.1 -8.9°
